Omaha, IA

8:15 AM CDT on June 23, 2018 (GMT -0500)
Eppley Airfield

Weather History for KOMA - September, 2017

Change the Weather History Date:

Thursday, September 14, 2017

  Actual Average Record
Temperature  
Mean Temperature 82 °F 67 °F  
Max Temperature 96 °F 78 °F 98 °F (1939)
Min Temperature 67 °F 55 °F 38 °F (1974)
Degree Days  
Heating Degree Days 0 2  
Month to date heating degree days 10 20  
Since 1 July heating degree days 10 28  
Cooling Degree Days 17 4  
Month to date cooling degree days 99 77  
Year to date cooling degree days 1228 1057  
Growing Degree Days 32 (Base 50)    
Moisture  
Dew Point 57 °F    
Average Humidity 48    
Maximum Humidity 73    
Minimum Humidity 23    
Precipitation  
Precipitation 0.00 in 0.09 in 2.21 in (1874)
Month to date precipitation T 1.36  
Year to date precipitation 18.97 24.47  
Snow  
Snow 0.00 in 0.00 in - ()
Month to date snowfall 0.0 0.0  
Since 1 July snowfall 0.0 0.0  
Snow Depth 0.00 in    
Sea Level Pressure  
Sea Level Pressure 29.69 in    
Wind  
Wind Speed 15 mph (SSE)    
Max Wind Speed 30 mph    
Max Gust Speed 39 mph    
Visibility 10 miles    
Events      
T = Trace of Precipitation, MM = Missing Value Source: NWS Daily Summary

Daily Weather History Graph

Daily Weather History Graph

Search for Another Location

Airport or City:

Astronomy

Sep. 14, 2017 Rise Set
Actual Time 7:03 AM CDT 7:33 PM CDT
Civil Twilight 6:35 AM CDT 8:01 PM CDT
Nautical Twilight 6:02 AM CDT 8:34 PM CDT
Astronomical Twilight 5:29 AM CDT 9:07 PM CDT
Moon 12:58 AM CDT (9/14) 3:55 PM CDT (9/14)
Length of Visible Light 13h 26m
Length of Day
12h 30m
Waning Crescent, 34% of the Moon is Illuminated
Sep 14
Waning Crescent
Sep 20
New
Sep 27
First Quarter
Oct 5
Full
Oct 12
Last Quarter

Hourly Weather History & Observations

Time (CDT) Temp. Heat Index Dew Point Humidity Pressure Visibility Wind Dir Wind Speed Gust Speed Precip Events Conditions
12:52 AM 73.0 °F - 61.0 °F 66% 29.70 in 10.0 mi SSE 9.2 mph - N/A   Partly Cloudy
1:52 AM 69.1 °F - 60.1 °F 73% 29.71 in 10.0 mi SSE 8.1 mph - N/A   Partly Cloudy
2:52 AM 69.1 °F - 61.0 °F 75% 29.71 in 10.0 mi SSE 9.2 mph - N/A   Scattered Clouds
3:52 AM 70.0 °F - 60.1 °F 71% 29.71 in 10.0 mi SSE 11.5 mph - N/A   Scattered Clouds
4:52 AM 69.8 °F - 59.0 °F 68% 29.70 in 10.0 mi SSE 10.4 mph - N/A   Mostly Cloudy
5:52 AM 69.1 °F - 57.9 °F 68% 29.70 in 10.0 mi SSE 9.2 mph - N/A   Partly Cloudy
6:52 AM 68.0 °F - 57.9 °F 70% 29.71 in 10.0 mi SSE 10.4 mph - N/A   Partly Cloudy
7:52 AM 70.0 °F - 57.9 °F 65% 29.72 in 10.0 mi SSE 10.4 mph - N/A   Partly Cloudy
8:52 AM 71.1 °F - 57.9 °F 63% 29.72 in 10.0 mi SSE 12.7 mph - N/A   Scattered Clouds
9:52 AM 75.9 °F - 57.9 °F 54% 29.72 in 10.0 mi SSE 16.1 mph - N/A   Scattered Clouds
10:52 AM 82.0 °F 82.0 °F 57.9 °F 44% 29.71 in 10.0 mi South 13.8 mph - N/A   Scattered Clouds
11:52 AM 86.0 °F 84.9 °F 57.0 °F 37% 29.70 in 10.0 mi South 17.3 mph - N/A   Scattered Clouds
12:52 PM 91.0 °F 89.2 °F 55.9 °F 30% 29.68 in 10.0 mi South 24.2 mph 28.8 mph N/A   Partly Cloudy
1:52 PM 93.0 °F - 51.1 °F 24% 29.66 in 10.0 mi South 24.2 mph 36.8 mph N/A   Partly Cloudy
2:52 PM 95.0 °F - 51.1 °F 22% 29.65 in 10.0 mi South 20.7 mph 28.8 mph N/A   Partly Cloudy
3:52 PM 95.0 °F - 51.1 °F 22% 29.64 in 10.0 mi South 28.8 mph 39.1 mph N/A   Partly Cloudy
4:52 PM 95.0 °F - 51.1 °F 22% 29.63 in 10.0 mi South 15.0 mph 28.8 mph N/A   Partly Cloudy
5:52 PM 93.9 °F - 51.1 °F 23% 29.64 in 10.0 mi South 15.0 mph 25.3 mph N/A   Scattered Clouds
6:52 PM 91.0 °F 88.5 °F 53.1 °F 27% 29.65 in 10.0 mi South 12.7 mph - N/A   Scattered Clouds
7:52 PM 86.0 °F 84.9 °F 57.0 °F 37% 29.67 in 10.0 mi SSE 15.0 mph - N/A   Scattered Clouds
8:52 PM 81.0 °F 81.1 °F 57.9 °F 45% 29.69 in 10.0 mi SSE 12.7 mph - N/A   Scattered Clouds
9:52 PM 78.1 °F - 60.1 °F 54% 29.70 in 10.0 mi SSE 15.0 mph - N/A   Scattered Clouds
10:52 PM 79.0 °F - 60.1 °F 52% 29.71 in 10.0 mi South 17.3 mph - N/A   Mostly Cloudy
11:52 PM 77.0 °F - 57.9 °F 52% 29.71 in 10.0 mi South 16.1 mph - N/A   Mostly Cloudy